Weather History for KVNY - November, 2012

Change the Weather History Date:

Friday, November 2, 2012

  Actual Average Record
Temperature  
Mean Temperature 62 °F -  
Max Temperature 73 °F 71 °F 100 °F (1997)
Min Temperature 51 °F 49 °F 43 °F (2003)
Degree Days  
Heating Degree Days 4    
Growing Degree Days 12 (Base 50)    
Moisture  
Dew Point 50 °F    
Average Humidity 74    
Maximum Humidity 89    
Minimum Humidity 46    
Precipitation  
Precipitation 0.00 in - - ()
Sea Level Pressure  
Sea Level Pressure 29.97 in    
Wind  
Wind Speed 1 mph (East)    
Max Wind Speed 8 mph    
Max Gust Speed -    
Visibility 7 miles    
Events      
Averages and records for this station are not official NWS values.
T = Trace of Precipitation, MM = Missing Value Source: NWS Daily Summary

Daily Weather History Graph

Daily Weather History Graph

Search for Another Location

Airport or City:

Trip Planner

Search our weather history database for the weather conditions in past years. The results will help you decide how hot, cold, wet, or windy it might be!

Date:

Astronomy

Nov. 02, 2012 Rise Set
Actual Time 7:15 AM PDT 5:59 PM PDT
Civil Twilight 6:49 AM PDT 6:25 PM PDT
Nautical Twilight 6:19 AM PDT 6:55 PM PDT
Astronomical Twilight 5:50 AM PDT 7:24 PM PDT
Moon 8:55 PM PDT (11/2) 10:34 AM PDT (11/2)
Length of Visible Light 11h 36m
Length of Day
10h 44m
Waning Gibbous, 86% of the Moon is Illuminated
Nov 2
Waning Gibbous
Nov 6
Last Quarter
Nov 13
New
Nov 20
First Quarter
Nov 28
Full

Hourly Weather History & Observations

Time (PDT) Temp. Dew Point Humidity Pressure Visibility Wind Dir Wind Speed Gust Speed Precip Events Conditions
12:51 AM 53.1 °F 48.0 °F 83% 29.98 in 9.0 mi Calm Calm - N/A   Clear
1:51 AM 53.1 °F 48.0 °F 83% 29.97 in 9.0 mi Calm Calm - N/A   Clear
2:47 AM 51.8 °F 48.2 °F 88% 30.00 in 8.0 mi Calm Calm - N/A   Scattered Clouds
2:51 AM 52.0 °F 48.0 °F 86% 29.98 in 8.0 mi Calm Calm - N/A   Mostly Cloudy
3:51 AM 55.0 °F 51.1 °F 86% 29.96 in 6.0 mi Calm Calm - N/A   Overcast
4:51 AM 55.0 °F 51.1 °F 86% 29.96 in 4.0 mi NNE 3.5 mph - N/A   Overcast
5:40 AM 55.4 °F 51.8 °F 88% 29.99 in 4.0 mi Calm Calm - N/A   Overcast
5:51 AM 55.0 °F 51.1 °F 86% 29.98 in 4.0 mi North 3.5 mph - N/A   Overcast
6:51 AM 54.0 °F 50.0 °F 86% 29.97 in 4.0 mi NNE 3.5 mph - N/A   Partly Cloudy
7:51 AM 53.1 °F 50.0 °F 89% 29.98 in 4.0 mi Calm Calm - N/A   Partly Cloudy
8:51 AM 55.9 °F 48.9 °F 77% 29.99 in 4.0 mi Calm Calm - N/A   Haze
9:51 AM 57.9 °F 50.0 °F 75% 30.00 in 4.0 mi SSE 4.6 mph - N/A   Haze
10:16 AM 59.0 °F 50.0 °F 72% 30.02 in 4.0 mi Calm Calm - N/A   Haze
10:51 AM 61.0 °F 50.0 °F 67% 30.01 in 5.0 mi Calm Calm - N/A   Haze
11:51 AM 63.0 °F 50.0 °F 63% 30.00 in 5.0 mi Calm Calm - N/A   Haze
12:51 PM 64.9 °F 50.0 °F 58% 29.96 in 6.0 mi Calm Calm - N/A   Haze
2:51 PM 71.1 °F 50.0 °F 47% 29.90 in 8.0 mi Calm Calm - N/A   Clear
3:51 PM 72.0 °F 50.0 °F 46% 29.90 in 8.0 mi Calm Calm - N/A   Partly Cloudy
4:51 PM 71.1 °F 52.0 °F 51% 29.90 in 10.0 mi SSE 8.1 mph - N/A   Partly Cloudy
5:51 PM 66.0 °F 52.0 °F 60% 29.91 in 10.0 mi SSE 5.8 mph - N/A   Scattered Clouds
6:51 PM 63.0 °F 52.0 °F 67% 29.93 in 10.0 mi Calm Calm - N/A   Scattered Clouds
7:51 PM 62.1 °F 48.9 °F 62% 29.94 in 10.0 mi Calm Calm - N/A   Partly Cloudy
8:51 PM 61.0 °F 51.1 °F 70% 29.95 in 10.0 mi ESE 3.5 mph - N/A   Clear
10:51 PM 59.0 °F 54.0 °F 83% 29.97 in 5.0 mi Calm Calm - N/A   Haze
11:51 PM 57.9 °F 53.1 °F 84% 29.98 in 6.0 mi Calm Calm - N/A   Haze